Location: Unspecified
(56.5417°N, 0.0000°E)
Time: 13:07:51
(UTC+00:00)

NOAA 14 DEB - Visible Passes

Search period start: 04 April 2026 00:00
Search period end: 14 April 2026 00:00
Orbit: 770 x 784 km, 98.6° (Epoch: 29 March)

Date Brightness Start Highest point End Pass type
(mag) Time Alt. Az. Time Alt. Az. Time Alt. Az.
4 Apr ? 00:54:49 13° W 00:54:49 13° W 00:57:04 10° NW visible
4 Apr ? 21:00:03 15° E 21:02:25 20° NE 21:06:04 10° N visible
4 Apr ? 22:40:29 71° ESE 22:40:54 76° ENE 22:46:07 10° NNW visible
5 Apr ? 00:20:55 23° W 00:20:55 23° W 00:24:48 10° NW visible
5 Apr ? 20:27:06 10° ENE 20:29:32 13° NE 20:31:58 10° NNE visible
5 Apr ? 22:06:35 41° E 22:07:38 46° ENE 22:12:35 10° N visible
5 Apr ? 23:47:02 38° W 23:47:02 38° W 23:51:49 10° NNW visible
6 Apr ? 21:32:41 24° E 21:34:29 29° NE 21:38:55 10° N visible
6 Apr ? 23:13:07 65° WSW 23:13:23 66° WSW 23:18:35 10° NNW visible
7 Apr ? 00:53:33 14° W 00:53:37 14° W 00:56:11 10° NW visible
7 Apr ? 20:58:47 13° E 21:01:27 20° NE 21:05:05 10° N visible
7 Apr ? 22:39:13 63° SE 22:39:57 75° ENE 22:45:09 10° NNW visible
8 Apr ? 00:19:39 23° W 00:19:43 23° W 00:23:50 10° NW visible
8 Apr ? 20:26:11 10° ENE 20:28:33 13° NE 20:30:55 10° NNE visible
8 Apr ? 22:05:18 37° ESE 22:06:39 45° ENE 22:11:35 10° N visible
8 Apr ? 23:45:44 39° WSW 23:45:58 39° W 23:50:50 10° NNW visible
9 Apr ? 21:31:22 22° E 21:33:29 29° NE 21:37:54 10° N visible
9 Apr ? 23:11:48 62° SW 23:12:22 67° WSW 23:17:34 10° NNW visible
10 Apr ? 00:52:14 14° W 00:52:35 14° W 00:55:14 10° NW visible
10 Apr ? 20:57:26 12° E 21:00:27 19° NE 21:04:02 10° N visible
10 Apr ? 22:37:52 56° SE 22:38:55 74° ENE 22:44:06 10° NNW visible
11 Apr ? 00:18:18 24° W 00:18:40 24° W 00:22:49 10° NW visible
11 Apr ? 20:25:13 10° ENE 20:27:31 13° NE 20:29:50 10° NNE visible
11 Apr ? 22:03:56 34° ESE 22:05:35 45° ENE 22:10:31 10° N visible
11 Apr ? 23:44:22 39° WSW 23:44:55 40° W 23:49:47 10° NNW visible
12 Apr ? 21:30:00 20° E 21:32:25 28° NE 21:36:48 10° N visible
12 Apr ? 23:10:25 57° SSW 23:11:17 68° WSW 23:16:29 10° NNW visible
13 Apr ? 00:50:51 14° W 00:51:29 14° W 00:54:12 10° NW visible
13 Apr ? 20:56:02 11° E 20:59:22 19° NE 21:02:54 10° N visible
13 Apr ? 22:36:28 49° SE 22:37:49 72° ENE 22:43:00 10° NNW visible
